Location: Caltech
(34.1382°N, 118.1253°W)
Time: 17:23:24
(UTC-07:00)

Meteor 2-4 Rocket - Visible Passes

Search period start: 01 July 2016 00:00
Search period end: 11 July 2016 00:00
Orbit: 799 x 909 km, 81.2° (Epoch: 01 July)

Date Brightness Start Highest point End Pass type
(mag) Time Alt. Az. Time Alt. Az. Time Alt. Az.
01 Jul 3.5 03:34:33 10° N 03:39:56 80° W 03:42:21 34° S visible
02 Jul 3.5 03:23:33 10° N 03:28:55 86° W 03:30:49 42° S visible
03 Jul 3.5 03:12:32 10° N 03:17:54 88° ENE 03:19:19 51° S visible
04 Jul 3.5 03:01:31 10° N 03:06:54 83° E 03:07:53 60° SSE visible
05 Jul 3.6 02:50:31 10° N 02:55:53 77° E 02:56:29 68° SE visible
06 Jul 3.6 02:39:31 10° N 02:44:52 71° E 02:45:08 70° ESE visible
07 Jul 3.8 02:28:32 10° N 02:33:48 66° ENE 02:33:48 66° ENE visible
07 Jul 5.6 04:14:45 10° WNW 04:15:51 11° W 04:15:51 11° W visible
08 Jul 3.9 02:17:32 10° N 02:22:31 60° ENE 02:22:31 60° ENE visible
08 Jul 5.6 04:03:12 10° WNW 04:04:34 12° WNW 04:04:34 12° WNW visible
09 Jul 4.1 02:06:33 10° N 02:11:16 54° NE 02:11:16 54° NE visible
09 Jul 5.6 03:51:48 10° WNW 03:53:19 13° WNW 03:53:19 13° WNW visible
10 Jul 4.3 01:55:34 10° N 02:00:02 49° NE 02:00:02 49° NE visible
10 Jul 5.6 03:40:29 10° NW 03:42:06 13° WNW 03:42:06 13° WNW visible
